Regional Weather Roundup
Issued by NWS

Home | Current Version | Previous Version | Text Only | Print | Product List | Glossary On
Versions: 1 2 3 4 5 6 7 8 9 10 11 12 13 14 15 16
000
ASPQ40 PGUM 302110
RWRPQ
WEATHER ROUNDUP FOR THE MARIANAS AND MICRONESIA
NATIONAL WEATHER SERVICE TIYAN GU
700 AM CHST SAT JAN 31 2015

GUZ001>004-302200-
MARIANA ISLANDS-

CITY           SKY/WX    TMP DP  RH WIND       PRES   REMARKS
GUAM AIRPORT   PTCLDY    77  73  88 NE5       29.87R
ANDERSEN AFB   PTCLDY    77  73  88 NE15      29.88R
ROTA AIRPORT   NOT AVBL
TINIAN AP      PTCLDY    79  73  83 E12       29.88
SAIPAN AP      MOCLDY    79  72  78 NE10G24   29.89R

$$

PMZ161-302200-
REPUBLIC OF PALAU-

CITY           SKY/WX    TMP DP  RH WIND       PRES   REMARKS
KOROR AP       MOCLDY    77  75  94 NE3       29.85R
KOROR WSO      NOT AVBL

$$

PMZ171>174-302200-
FEDERATED STATES OF MICRONESIA-

CITY           SKY/WX    TMP DP  RH WIND       PRES   REMARKS
YAP AIRPORT    NOT AVBL
CHUUK AP       NOT AVBL
POHNPEI AP     NOT AVBL
POHNPEI WSO    NOT AVBL
KOSRAE AP      NOT AVBL

$$

PMZ181-302200-
REPUBLIC OF THE MARSHALL ISLANDS-

CITY           SKY/WX    TMP DP  RH WIND       PRES   REMARKS
KWAJALEIN AP   PTSUNNY   81  70  69 NE17      29.81R
MAJURO AP      PTSUNNY   84  75  74 NE16      29.78  HX  92
MAJURO WSO     PTSUNNY   84  77  79 NE9       29.78R HX  94

$$



USA.gov is the U.S. government's official web portal to all federal, state and local government web resources and services.